1521090000.94,4598,9.19,72384.8,-8.33,-9.11,-9.15,0,*6C
1521090002.19,4599,9.19,72384.8,-8.33,-9.11,-9.11,0,*69
1521090003.44,4600,9.19,72386.3,-8.33,-9.11,-9.11,0,*6A
1521090004.69,4601,9.19,72386.3,-8.33,-9.11,-9.11,0,*6B
1521090005.94,4602,9.19,72384.0,-8.35,-9.15,-9.19,0,*62
1521090007.18,4603,9.19,72380.3,-8.35,-9.19,-9.15,0,*63
1521090008.43,4604,9.19,72380.5,-8.35,-9.19,-9.15,0,*64
1521090009.7,4605,9.19,72382.0,-8.35,-9.15,-9.15,0,*69
1521090010.92,4606,9.19,72382.0,-8.35,-9.19,-9.19,0,*6A
1521090012.16,4607,9.13,72380.5,-8.35,-9.19,-9.15,0,*67
1521090013.41,4608,9.13,72378.5,-8.35,-9.19,-9.15,0,*68
1521090014.66,4609,9.19,72382.3,-8.35,-9.15,-9.19,0,*69
1521090015.93,4610,9.19,72384.0,-8.35,-9.15,-9.15,0,*6D
1521090017.15,4611,9.13,72378.8,-8.37,-9.15,-9.19,0,*62
1521090018.39,4612,9.19,72384.3,-8.35,-9.19,-9.15,0,*63
1521090019.61,4613,9.19,72380.8,-8.35,-9.19,-9.19,0,*6E
1521090020.86,4614,9.19,72380.5,-8.35,-9.15,-9.19,0,*65
1521090022.11,4615,9.19,72380.3,-8.35,-9.19,-9.15,0,*64
1521090023.36,4616,9.19,72382.3,-8.35,-9.15,-9.19,0,*67
1521090024.57,4617,9.19,72384.5,-8.35,-9.19,-9.05,0,*67
1521090025.79,4618,9.19,72382.0,-8.35,-9.19,-9.19,0,*65
1521090027.07,4619,9.19,72378.3,-8.35,-9.15,-9.15,0,*64
1521090028.32,4620,9.19,72378.0,-8.35,-9.15,-9.19,0,*62
1521090029.53,4621,9.19,72380.0,-8.35,-9.19,-9.19,0,*6F
1521090030.78,4622,9.19,72378.8,-8.35,-9.19,-9.15,0,*60
1521090032.05,4623,9.19,72380.3,-8.35,-9.15,-9.15,0,*6D
1521090033.33,4624,9.19,72378.3,-8.35,-9.15,-9.15,0,*6A
1521090034.6,4625,9.19,72380.8,-8.35,-9.15,-9.15,0,*6B
1521090035.84,4626,9.19,72378.3,-8.35,-9.19,-9.15,0,*64
1521090037.07,4627,9.19,72378.0,-8.37,-9.15,-9.19,0,*67
1521090038.31,4628,9.19,72380.3,-8.35,-9.19,-9.15,0,*6A
1521090039.55,4629,9.19,72380.3,-8.35,-9.19,-9.15,0,*6B
1521090040.8,4630,9.19,72386.5,-8.35,-9.19,-9.15,0,*63
1521090042.01,4631,9.13,72378.8,-8.35,-9.19,-9.19,0,*6E
1521090043.29,4632,9.19,72380.3,-8.35,-9.15,-9.15,0,*6D
1521090044.51,4633,9.19,72380.8,-8.35,-9.19,-9.19,0,*6C
1521090045.75,4634,9.13,72376.3,-8.35,-9.19,-9.15,0,*67
1521090046.97,4635,9.19,72380.8,-8.35,-9.19,-9.19,0,*6A
1521090048.24,4636,9.19,72384.3,-8.35,-9.15,-9.15,0,*69
1521090049.49,4637,9.19,72384.8,-8.35,-9.15,-9.19,0,*64
1521090050.76,4638,9.19,72386.0,-8.35,-9.15,-9.15,0,*67
1521090051.98,4639,9.19,72382.5,-8.35,-9.19,-9.19,0,*66
1521090053.2,4640,9.13,72380.8,-8.37,-9.19,-9.15,0,*66
1521090054.47,4641,9.19,72384.3,-8.35,-9.15,-9.15,0,*69
1521090055.69,4642,9.19,72384.5,-8.37,-9.19,-9.15,0,*64
1521090056.94,4643,9.19,72384.0,-8.35,-9.19,-9.15,0,*67
1521090058.18,4644,9.19,72388.5,-8.37,-9.15,-9.15,0,*6E
1521090059.43,4645,9.19,72388.3,-8.35,-9.15,-9.19,0,*61
1521090060.65,4646,9.19,72384.0,-8.35,-9.19,-9.19,0,*6E
1521090061.87,4647,9.19,72386.8,-8.35,-9.19,-9.19,0,*6F
1521090063.06,4648,9.13,72384.3,-8.37,-9.19,-9.19,0,*62
1521090064.28,4649,9.19,72384.3,-8.35,-9.19,-9.19,0,*61
1521090065.5,4650,9.19,72388.8,-8.35,-9.19,-9.19,0,*69
1521090066.75,4651,9.19,72388.5,-8.35,-9.15,-9.19,0,*64
1521090067.99,4652,9.19,72386.0,-8.35,-9.15,-9.19,0,*67
1521090069.24,4653,9.19,72384.5,-8.37,-9.15,-9.15,0,*68
1521090070.46,4654,9.19,72384.3,-8.35,-9.19,-9.19,0,*6D
1521090071.68,4655,9.19,72388.3,-8.35,-9.19,-9.19,0,*6C
1521090072.9,4656,9.19,72386.5,-8.35,-9.19,-9.19,0,*6F
1521090074.15,4657,9.19,72390.3,-8.33,-9.15,-9.11,0,*6C
1521090075.37,4658,9.19,72388.5,-8.35,-9.19,-9.19,0,*61
1521090076.58,4659,9.19,72386.0,-8.35,-9.19,-9.19,0,*60
1521090077.83,4660,9.13,72386.8,-8.35,-9.15,-9.19,0,*66
1521090079.08,4661,9.19,72386.8,-8.35,-9.19,-9.15,0,*67
1521090080.3,4662,9.19,72386.8,-8.37,-9.15,-9.19,0,*66
1521090081.57,4663,9.19,72384.3,-8.35,-9.15,-9.15,0,*69
1521090082.82,4664,9.19,72386.5,-8.35,-9.15,-9.19,0,*62
1521090084.1,4665,9.19,72386.5,-8.35,-9.15,-9.15,0,*6F
1521090085.32,4666,9.19,72388.8,-8.37,-9.15,-9.19,0,*62
1521090086.56,4667,9.13,72384.5,-8.35,-9.19,-9.15,0,*61
1521090087.78,4668,9.19,72388.3,-8.35,-9.19,-9.19,0,*62
1521090089.06,4669,9.19,72388.8,-8.35,-9.15,-9.15,0,*63
1521090090.27,4670,9.19,72388.5,-8.35,-9.19,-9.19,0,*6B
1521090091.49,4671,9.19,72388.3,-8.35,-9.19,-9.19,0,*6A
1521090092.77,4672,9.19,72390.5,-8.35,-9.15,-9.15,0,*69
1521090093.98,4673,9.19,72390.5,-8.35,-9.19,-9.19,0,*68
1521090095.23,4674,9.19,72390.0,-8.35,-9.15,-9.19,0,*63
1521090096.48,4675,9.19,72390.5,-8.35,-9.19,-9.15,0,*62
1521090097.72,4676,9.19,72390.3,-8.35,-9.19,-9.15,0,*61
1521090098.91,4677,9.19,72390.5,-8.37,-9.19,-9.05,0,*63
1521090100.13,4678,9.19,72394.0,-8.35,-9.19,-9.19,0,*63
1521090101.38,4679,9.19,72394.5,-8.35,-9.19,-9.15,0,*6E
1521090102.65,4680,9.19,72394.8,-8.35,-9.15,-9.15,0,*64
1521090103.84,4681,9.19,72394.0,-8.37,-9.19,-9.19,0,*67
1521090105.06,4682,9.19,72392.5,-8.35,-9.19,-9.19,0,*66
1521090106.31,4683,9.19,72392.3,-8.35,-9.15,-9.19,0,*6B
1521090107.58,4684,9.13,72390.8,-8.35,-9.15,-9.15,0,*60
1521090108.86,4685,9.19,72392.3,-8.35,-9.15,-9.15,0,*61
1521090110.11,4686,9.19,72394.8,-8.37,-9.15,-9.15,0,*60
1521090111.35,4687,9.19,72388.5,-8.35,-9.19,-9.15,0,*6F
1521090112.57,4688,9.19,72394.8,-8.37,-9.15,-9.19,0,*62
1521090113.8,4689,9.19,72392.3,-8.37,-9.15,-9.19,0,*63
1521090115.07,4690,9.19,72392.3,-8.35,-9.15,-9.15,0,*65
1521090116.35,4691,9.19,72388.5,-8.35,-9.15,-9.15,0,*64
1521090117.59,4692,9.19,72392.8,-8.35,-9.15,-9.19,0,*6B
1521090118.84,4693,9.13,72390.3,-8.37,-9.15,-9.15,0,*64
1521090120.09,4694,9.19,72394.0,-8.35,-9.15,-9.19,0,*6D
1521090121.37,4695,9.19,72392.8,-8.35,-9.15,-9.15,0,*60
1521090122.61,4696,9.19,72394.0,-8.35,-9.19,-9.15,0,*6F
1521090123.86,4697,9.19,72398.8,-8.35,-9.15,-9.05,0,*63
1521090125.11,4698,9.19,72388.8,-8.35,-9.15,-9.05,0,*6C
1521090126.36,4699,9.19,72390.8,-8.35,-9.15,-9.19,0,*60
1521090127.58,4700,9.19,72388.3,-8.37,-9.19,-9.15,0,*63
1521090128.85,4701,9.19,72386.8,-8.35,-9.15,-9.15,0,*6C
1521090130.13,4702,9.19,72384.8,-8.35,-9.15,-9.15,0,*6F
1521090131.35,4703,9.19,72390.5,-8.37,-9.19,-9.15,0,*60
1521090132.62,4704,9.19,72390.0,-8.35,-9.15,-9.15,0,*69
1521090133.84,4705,9.19,72386.8,-8.37,-9.19,-9.15,0,*66
1521090135.09,4706,9.19,72390.8,-8.35,-9.15,-9.19,0,*67
1521090136.33,4707,9.19,72388.8,-8.35,-9.19,-9.15,0,*66
1521090137.6,4708,9.19,72388.8,-8.35,-9.15,-9.15,0,*65
1521090138.82,4709,9.19,72390.0,-8.35,-9.19,-9.19,0,*64
1521090140.07,4710,9.19,72388.0,-8.37,-9.15,-9.15,0,*6E
1521090141.32,4711,9.19,72388.8,-8.35,-9.19,-9.15,0,*61
1521090142.59,4712,9.19,72392.3,-8.35,-9.15,-9.15,0,*6E
1521090143.86,4713,9.19,72392.0,-8.35,-9.15,-9.15,0,*6F
1521090145.08,4714,9.13,72386.8,-8.37,-9.19,-9.15,0,*66
1521090146.32,4715,9.19,72390.5,-8.35,-9.19,-9.15,0,*65
1521090147.6,4716,9.19,72390.0,-8.35,-9.15,-9.15,0,*6A
1521090148.85,4717,9.13,72384.0,-8.35,-9.15,-9.19,0,*67
1521090150.04,4718,9.19,72390.5,-8.37,-9.19,-9.19,0,*66
1521090151.28,4719,9.19,72388.8,-8.35,-9.19,-9.15,0,*69
1521090152.56,4720,9.19,72390.8,-8.35,-9.15,-9.15,0,*6F
1521090153.75,4721,9.19,72390.0,-8.37,-9.19,-9.19,0,*6C
1521090155.02,4722,9.19,72390.3,-8.35,-9.15,-9.15,0,*6D
1521090156.27,4723,9.19,72388.8,-8.35,-9.19,-9.15,0,*60
1521090157.52,4724,9.19,72390.8,-8.35,-9.15,-9.19,0,*67
1521090158.76,4725,9.13,72390.0,-8.35,-9.19,-9.15,0,*66
1521090160.01,4726,9.19,72388.8,-8.35,-9.15,-9.19,0,*65
1521090161.28,4727,9.19,72388.0,-8.35,-9.15,-9.15,0,*68
1521090162.54,4728,9.19,72390.0,-8.35,-9.15,-9.05,0,*66
1521090163.78,4729,9.19,72390.5,-8.35,-9.15,-9.19,0,*6A
1521090165.03,4730,9.19,72392.3,-8.35,-9.15,-9.19,0,*62
1521090166.31,4731,9.19,72390.8,-8.35,-9.15,-9.15,0,*6F
1521090167.56,4732,9.19,72390.3,-8.35,-9.15,-9.19,0,*60
1521090168.78,4733,9.19,72390.8,-8.35,-9.19,-9.05,0,*60
1521090170.02,4734,9.19,72392.0,-8.35,-9.19,-9.15,0,*66
1521090171.29,4735,9.19,72390.0,-8.35,-9.15,-9.15,0,*6B
1521090172.57,4736,9.19,72388.0,-8.35,-9.15,-9.15,0,*68
1521090173.82,4737,9.19,72388.8,-8.37,-9.15,-9.15,0,*6B
1521090175.07,4738,9.19,72386.8,-8.37,-9.15,-9.15,0,*64
1521090176.29,4739,9.19,72388.3,-8.37,-9.15,-9.19,0,*69
1521090177.53,4740,9.13,72384.8,-8.35,-9.19,-9.15,0,*65
1521090178.76,4741,9.19,72386.5,-8.37,-9.15,-9.19,0,*66
1521090180.0,4742,9.19,72388.8,-8.37,-9.15,-9.15,0,*69
1521090181.25,4743,9.19,72390.5,-8.37,-9.15,-9.15,0,*68
1521090182.47,4744,9.19,72388.8,-8.35,-9.19,-9.19,0,*6D
1521090183.72,4745,9.13,72384.8,-8.35,-9.15,-9.19,0,*60
1521090184.96,4746,9.19,72390.5,-8.35,-9.19,-9.15,0,*63
1521090186.24,4747,9.19,72384.5,-8.35,-9.15,-9.15,0,*6E
1521090187.49,4748,9.19,72388.0,-8.37,-9.15,-9.15,0,*63
1521090188.74,4749,9.19,72388.8,-8.37,-9.15,-9.15,0,*62
1521090190.01,4750,9.19,72388.3,-8.35,-9.15,-9.15,0,*68
1521090191.25,4751,9.19,72392.0,-8.35,-9.19,-9.15,0,*65
1521090192.45,4752,9.19,72386.8,-8.37,-9.19,-9.19,0,*68
1521090193.69,4753,9.19,72388.0,-8.35,-9.15,-9.19,0,*67
1521090194.94,4754,9.13,72382.5,-8.37,-9.15,-9.15,0,*6E
1521090196.19,4755,9.13,72386.5,-8.37,-9.15,-9.15,0,*6F
1521090197.47,4756,9.19,72388.5,-8.35,-9.15,-9.15,0,*6E
1521090198.74,4757,9.19,72388.5,-8.35,-9.15,-9.15,0,*6F
1521090199.96,4758,9.19,72386.3,-8.37,-9.19,-9.15,0,*6E
1521090201.23,4759,9.19,72392.5,-8.35,-9.15,-9.15,0,*61
1521090202.48,4760,9.19,72394.8,-8.35,-9.15,-9.19,0,*67
1521090203.7,4761,9.19,72390.5,-8.35,-9.19,-9.19,0,*6A
1521090204.97,4762,9.19,72396.0,-8.35,-9.15,-9.15,0,*69
1521090206.25,4763,9.19,72390.3,-8.35,-9.15,-9.15,0,*68
1521090207.47,4764,9.19,72390.8,-8.35,-9.19,-9.19,0,*6F
1521090208.68,4765,9.19,72388.8,-8.37,-9.19,-9.15,0,*60
1521090209.93,4766,9.19,72388.5,-8.35,-9.19,-9.15,0,*61
1521090211.14,4767,9.19,72392.3,-8.37,-9.19,-9.15,0,*62
1521090212.36,4768,9.19,72390.0,-8.37,-9.19,-9.15,0,*6D
1521090213.61,4769,9.19,72392.0,-8.35,-9.15,-9.19,0,*6E
1521090214.83,4770,9.19,72394.0,-8.37,-9.19,-9.15,0,*64
1521090216.02,4771,9.13,72388.8,-8.37,-9.19,-9.19,0,*69
1521090217.24,4772,9.13,72390.5,-8.37,-9.15,-9.19,0,*66
1521090218.44,4773,9.19,72394.0,-8.37,-9.19,-9.19,0,*6B
1521090219.71,4774,9.19,72390.0,-8.35,-9.15,-9.15,0,*6E
1521090220.93,4775,9.13,72386.8,-8.37,-9.19,-9.15,0,*61
1521090222.15,4776,9.19,72390.0,-8.37,-9.19,-9.15,0,*62
1521090223.39,4777,9.19,72390.3,-8.35,-9.19,-9.15,0,*61
1521090224.63,4778,9.19,72388.0,-8.35,-9.19,-9.15,0,*6E
1521090225.82,4779,9.19,72390.8,-8.37,-9.19,-9.19,0,*61
1521090227.04,4780,9.19,72392.3,-8.37,-9.19,-9.15,0,*6B
1521090228.26,4781,9.19,72388.8,-8.37,-9.19,-9.15,0,*6A
1521090229.51,4782,9.19,72388.3,-8.37,-9.15,-9.15,0,*65
1521090230.78,4783,9.19,72390.8,-8.35,-9.15,-9.15,0,*66
1521090231.97,4784,9.19,72388.0,-8.37,-9.19,-9.19,0,*63
1521090233.17,4785,9.19,72386.8,-8.37,-9.19,-9.19,0,*62
1521090234.42,4786,9.19,72388.8,-8.37,-9.15,-9.15,0,*61
1521090235.66,4787,9.19,72394.5,-8.35,-9.15,-9.19,0,*6E
1521090236.89,4788,9.19,72390.3,-8.37,-9.15,-9.19,0,*63
1521090238.16,4789,9.19,72390.5,-8.35,-9.15,-9.15,0,*6C
1521090239.41,4790,9.19,72388.8,-8.35,-9.19,-9.15,0,*68
1521090240.62,4791,9.19,72384.5,-8.37,-9.19,-9.15,0,*6B
1521090241.82,4792,9.19,72388.0,-8.37,-9.19,-9.19,0,*64
1521090243.06,4793,9.19,72384.8,-8.37,-9.15,-9.15,0,*65
1521090244.31,4794,9.19,72386.3,-8.35,-9.15,-9.19,0,*6C
1521090245.56,4795,9.19,72386.5,-8.35,-9.15,-9.19,0,*6D
1521090246.78,4796,9.19,72384.3,-8.37,-9.19,-9.15,0,*6C
1521090248.03,4797,9.19,72384.8,-8.35,-9.15,-9.19,0,*6F
1521090249.27,4798,9.19,72386.0,-8.35,-9.19,-9.15,0,*60
1521090250.49,4799,9.19,72388.8,-8.37,-9.19,-9.15,0,*63
1521090251.71,4800,9.19,72388.3,-8.37,-9.19,-9.15,0,*6C
1521090252.96,4801,9.19,72388.0,-8.37,-9.15,-9.15,0,*61
1521090254.17,4802,9.19,72388.0,-8.35,-9.19,-9.19,0,*60
1521090255.42,4803,9.19,72390.0,-8.35,-9.15,-9.19,0,*6D
1521090256.64,4804,9.19,72392.3,-8.37,-9.05,-9.15,0,*65
1521090257.83,4805,9.19,72392.0,-8.37,-9.19,-9.19,0,*65
1521090259.08,4806,9.13,72390.0,-8.37,-9.15,-9.15,0,*66
1521090260.36,4807,9.19,72390.8,-8.35,-9.15,-9.15,0,*65
1521090261.61,4808,9.19,72390.3,-8.35,-9.15,-9.19,0,*66
1521090262.85,4809,9.19,72386.0,-8.37,-9.15,-9.15,0,*69
1521090264.08,4810,9.19,72384.8,-8.37,-9.15,-9.19,0,*6D
1521090265.27,4811,9.19,72386.3,-8.37,-9.19,-9.19,0,*60
1521090266.52,4812,9.19,72388.0,-8.35,-9.15,-9.19,0,*6D
1521090267.77,4813,9.19,72390.0,-8.37,-9.15,-9.15,0,*62
1521090269.02,4814,9.13,72386.0,-8.35,-9.15,-9.19,0,*6B
1521090270.21,4815,9.19,72388.0,-8.37,-9.19,-9.19,0,*64
1521090271.43,4816,9.13,72386.0,-8.37,-9.19,-9.15,0,*6B
1521090272.67,4817,9.19,72390.0,-8.35,-9.19,-9.15,0,*68
1521090273.92,4818,9.19,72386.5,-8.35,-9.15,-9.19,0,*67
1521090275.14,4819,9.19,72386.8,-8.37,-9.19,-9.15,0,*64
1521090276.35,4820,9.19,72388.5,-8.37,-9.19,-9.15,0,*6E
1521090277.6,4821,9.19,72388.0,-8.35,-9.19,-9.15,0,*6D
1521090278.85,4822,9.19,72384.8,-8.37,-9.15,-9.15,0,*60
1521090280.07,4823,9.19,72390.0,-8.37,-9.15,-9.19,0,*6D
1521090281.29,4824,9.19,72388.8,-8.37,-9.19,-9.15,0,*6A
1521090282.51,4825,9.19,72384.8,-8.37,-9.15,-9.19,0,*6B
1521090283.76,4826,9.13,72384.0,-8.37,-9.15,-9.15,0,*64
1521090284.98,4827,9.19,72388.3,-8.35,-9.19,-9.19,0,*67
1521090286.2,4828,9.19,72390.3,-8.37,-9.19,-9.15,0,*66
1521090287.44,4829,9.19,72388.3,-8.35,-9.19,-9.15,0,*65
1521090288.66,4830,9.19,72388.0,-8.37,-9.19,-9.15,0,*6F
1521090289.9,4831,9.19,72388.8,-8.35,-9.19,-9.15,0,*6C
1521090291.15,4832,9.19,72388.5,-8.35,-9.15,-9.19,0,*6F
1521090292.34,4833,9.19,72392.8,-8.37,-9.19,-9.19,0,*60
1521090293.56,4834,9.19,72388.5,-8.37,-9.15,-9.19,0,*6B
1521090294.78,4835,9.19,72388.8,-8.37,-9.19,-9.15,0,*6A
1521090295.97,4836,9.19,72388.0,-8.37,-9.19,-9.19,0,*65
1521090297.17,4837,9.19,72390.3,-8.37,-9.19,-9.19,0,*64
1521090298.38,4838,9.13,72386.5,-8.35,-9.19,-9.19,0,*69
1521090299.61,4839,9.19,72384.3,-8.37,-9.15,-9.19,0,*66
1521090300.8,4840,9.19,72388.0,-8.37,-9.19,-9.19,0,*64
1521090302.05,4841,9.19,72390.3,-8.35,-9.15,-9.19,0,*6B
1521090303.27,4842,9.19,72388.3,-8.35,-9.19,-9.19,0,*64
1521090304.52,4843,9.19,72388.8,-8.35,-9.15,-9.19,0,*69
1521090305.77,4844,9.19,72390.0,-8.35,-9.15,-9.19,0,*6E
1521090307.01,4845,9.13,72388.0,-8.37,-9.15,-9.15,0,*61
1521090308.23,4846,9.13,72384.8,-8.35,-9.19,-9.19,0,*60
1521090309.48,4847,9.19,72392.0,-8.37,-9.15,-9.15,0,*63
1521090310.73,4848,9.19,72386.5,-8.37,-9.15,-9.15,0,*6C
1521090311.92,4849,9.19,72386.5,-8.37,-9.19,-9.19,0,*6D
1521090313.11,4850,9.19,72388.8,-8.37,-9.19,-9.19,0,*65
1521090314.39,4851,9.13,72386.0,-8.35,-9.15,-9.15,0,*66
1521090315.61,4852,9.19,72384.8,-8.37,-9.15,-9.19,0,*6B
1521090316.86,4853,9.19,72392.5,-8.37,-9.15,-9.15,0,*66
1521090318.08,4854,9.19,72386.3,-8.37,-9.19,-9.15,0,*6D
1521090319.33,4855,9.19,72390.3,-8.37,-9.15,-9.15,0,*60
1521090320.55,4856,9.19,72390.5,-8.37,-9.15,-9.19,0,*6F
1521090321.82,4857,9.19,72388.3,-8.35,-9.15,-9.15,0,*60
1521090323.02,4858,9.19,72388.0,-8.37,-9.19,-9.19,0,*6D
1521090324.24,4859,9.19,72390.0,-8.37,-9.15,-9.19,0,*60
1521090325.43,4860,9.19,72390.3,-8.37,-9.19,-9.19,0,*66
1521090326.65,4861,9.19,72388.0,-8.37,-9.15,-9.19,0,*6B
1521090327.88,4862,9.19,72388.8,-8.37,-9.15,-9.19,0,*68
1521090329.07,4863,9.19,72388.5,-8.37,-9.19,-9.19,0,*65
1521090330.26,4864,9.19,72392.0,-8.37,-9.19,-9.19,0,*62
1521090331.51,4865,9.19,72388.3,-8.37,-9.15,-9.15,0,*63
1521090332.7,4866,9.19,72388.8,-8.37,-9.19,-9.19,0,*60
1521090333.93,4867,9.19,72394.5,-8.37,-9.15,-9.19,0,*6D
1521090335.14,4868,9.19,72388.8,-8.37,-9.19,-9.15,0,*62
1521090336.42,4869,9.19,72388.3,-8.35,-9.15,-9.15,0,*6D
1521090337.64,4870,9.19,72384.5,-8.37,-9.15,-9.19,0,*6B
1521090338.86,4871,9.19,72388.5,-8.35,-9.19,-9.19,0,*64
1521090340.05,4872,9.13,72386.8,-8.37,-9.19,-9.19,0,*65
1521090341.3,4873,9.19,72390.3,-8.37,-9.15,-9.15,0,*64
1521090342.52,4874,9.19,72384.5,-8.37,-9.15,-9.19,0,*6F
1521090343.77,4875,9.19,72394.5,-8.37,-9.15,-9.15,0,*62
1521090345.02,4876,9.19,72386.5,-8.37,-9.15,-9.15,0,*61
1521090346.21,4877,9.19,72390.8,-8.37,-9.19,-9.19,0,*60
1521090347.41,4878,9.19,72388.5,-8.37,-9.19,-9.19,0,*6F
1521090348.66,4879,9.19,72386.5,-8.37,-9.15,-9.15,0,*6E
1521090349.87,4880,9.19,72390.0,-8.39,-9.19,-9.19,0,*66
1521090351.15,4881,9.19,72384.5,-8.35,-9.15,-9.15,0,*6B
1521090352.36,4882,9.19,72388.3,-8.37,-9.19,-9.15,0,*66
1521090353.61,4883,9.19,72392.0,-8.37,-9.15,-9.15,0,*6B
1521090354.86,4884,9.19,72388.3,-8.37,-9.15,-9.15,0,*6C
1521090356.13,4885,9.19,72388.0,-8.35,-9.15,-9.15,0,*6F
1521090357.41,4886,9.19,72386.5,-8.35,-9.15,-9.15,0,*6C
1521090358.63,4887,9.19,72384.3,-8.37,-9.19,-9.15,0,*63
1521090359.88,4888,9.19,72390.3,-8.37,-9.15,-9.15,0,*60
1521090361.12,4889,9.19,72390.3,-8.37,-9.15,-9.15,0,*61
1521090362.35,4890,9.13,72386.5,-8.37,-9.15,-9.19,0,*65
1521090363.6,4891,9.19,72388.0,-8.37,-9.15,-9.15,0,*68
1521090364.81,4892,9.19,72386.5,-8.37,-9.19,-9.15,0,*67
1521090366.03,4893,9.19,72384.8,-8.37,-9.19,-9.15,0,*66
1521090367.28,4894,9.19,72386.3,-8.37,-9.15,-9.15,0,*6D
1521090368.5,4895,9.19,72384.5,-8.37,-9.19,-9.15,0,*60
1521090369.75,4896,9.19,72384.3,-8.37,-9.15,-9.15,0,*6F
1521090370.96,4897,9.19,72386.0,-8.37,-9.19,-9.15,0,*62
1521090372.21,4898,9.19,72388.8,-8.37,-9.15,-9.15,0,*61
1521090373.43,4899,9.19,72388.5,-8.37,-9.19,-9.15,0,*6C
1521090374.65,4900,9.13,72384.8,-8.35,-9.19,-9.19,0,*63
1521090375.89,4901,9.19,72390.0,-8.35,-9.19,-9.15,0,*6E
1521090377.11,4902,9.19,72386.0,-8.37,-9.15,-9.19,0,*6F
1521090378.33,4903,9.19,72388.8,-8.37,-9.19,-9.15,0,*6E
1521090379.53,4904,9.19,72386.0,-8.37,-9.19,-9.05,0,*68
1521090380.75,4905,9.13,72384.3,-8.37,-9.15,-9.05,0,*65
1521090381.97,4906,9.19,72390.8,-8.37,-9.19,-9.15,0,*6B
1521090383.19,4907,9.19,72392.5,-8.37,-9.15,-9.05,0,*67
1521090384.39,4908,9.19,72390.5,-8.37,-9.19,-9.05,0,*64
1521090385.61,4909,9.13,72384.8,-8.37,-9.15,-9.05,0,*69
1521090386.86,4910,9.19,72390.0,-8.37,-9.15,-9.15,0,*60
1521090388.08,4911,9.19,72388.8,-8.37,-9.19,-9.15,0,*6D
1521090389.33,4912,9.19,72388.5,-8.37,-9.15,-9.15,0,*62
1521090390.58,4913,9.19,72390.5,-8.37,-9.15,-9.15,0,*63
1521090391.77,4914,9.19,72384.5,-8.37,-9.19,-9.05,0,*69
1521090392.97,4915,9.19,72390.3,-8.37,-9.19,-9.05,0,*68
1521090394.24,4916,9.19,72390.0,-8.35,-9.15,-9.15,0,*64
1521090395.49,4917,9.19,72384.8,-8.37,-9.15,-9.15,0,*67
1521090396.74,4918,9.19,72388.8,-8.37,-9.15,-9.15,0,*68
1521090397.99,4919,9.19,72388.3,-8.37,-9.15,-9.15,0,*69
1521090399.24,4920,9.19,72388.0,-8.37,-9.15,-9.15,0,*63
1521090400.46,4921,9.19,72390.5,-8.37,-9.15,-9.19,0,*6E
1521090401.68,4922,9.19,72388.0,-8.37,-9.19,-9.15,0,*6D
1521090402.93,4923,9.19,72386.5,-8.37,-9.15,-9.15,0,*60
1521090404.17,4924,9.19,72386.8,-8.37,-9.15,-9.15,0,*67
1521090405.37,4925,9.19,72390.8,-8.37,-9.19,-9.19,0,*66
1521090406.61,4926,9.19,72392.0,-8.37,-9.15,-9.15,0,*65
1521090407.83,4927,9.19,72392.0,-8.39,-9.19,-9.19,0,*6A
1521090409.08,4928,9.19,72388.5,-8.37,-9.15,-9.15,0,*6B
1521090410.33,4929,9.19,72390.3,-8.35,-9.15,-9.19,0,*64
1521090411.58,4930,9.19,72394.8,-8.37,-9.15,-9.15,0,*62
1521090412.82,4931,9.19,72390.5,-8.37,-9.15,-9.15,0,*63
1521090414.07,4932,9.19,72390.0,-8.37,-9.15,-9.15,0,*60
1521090415.32,4933,9.19,72388.3,-8.35,-9.19,-9.15,0,*6F
1521090416.53,4934,9.19,72390.3,-8.37,-9.19,-9.15,0,*6A
1521090417.78,4935,9.19,72390.0,-8.35,-9.15,-9.19,0,*69
1521090419.06,4936,9.19,72390.5,-8.35,-9.15,-9.15,0,*66
1521090420.28,4937,9.19,72386.8,-8.37,-9.19,-9.15,0,*69
1521090421.47,4938,9.13,72384.0,-8.37,-9.05,-9.05,0,*6A
1521090422.72,4939,9.19,72390.8,-8.37,-9.15,-9.15,0,*6B
1521090423.97,4940,9.19,72388.0,-8.37,-9.15,-9.15,0,*65
1521090425.19,4941,9.19,72386.5,-8.37,-9.15,-9.05,0,*65
1521090426.39,4942,9.13,72384.8,-8.37,-9.05,-9.05,0,*67
1521090427.59,4943,9.19,72388.8,-8.37,-9.05,-9.19,0,*6B
1521090428.83,4944,9.19,72390.5,-8.37,-9.15,-9.15,0,*61
1521090430.08,4945,9.19,72388.0,-8.35,-9.19,-9.15,0,*6E
1521090431.29,4946,9.13,72384.5,-8.37,-9.19,-9.15,0,*6F
1521090432.52,4947,9.19,72386.5,-8.37,-9.15,-9.05,0,*63
1521090433.75,4948,9.19,72388.0,-8.37,-9.15,-9.05,0,*6C
1521090434.97,4949,9.19,72390.0,-8.35,-9.19,-9.05,0,*63
1521090436.22,4950,9.13,72390.8,-8.37,-9.15,-9.15,0,*64
1521090437.49,4951,9.19,72390.0,-8.35,-9.15,-9.15,0,*67
1521090438.74,4952,9.19,72388.3,-8.35,-9.15,-9.05,0,*65
1521090439.96,4953,9.19,72390.5,-8.37,-9.15,-9.05,0,*66
1521090441.21,4954,9.13,72390.0,-8.37,-9.15,-9.15,0,*60
1521090442.47,4955,9.19,72388.3,-8.35,-9.15,-9.05,0,*62
1521090443.72,4956,9.19,72388.5,-8.35,-9.15,-9.01,0,*65
1521090444.94,4957,9.19,72392.3,-8.35,-9.05,-9.05,0,*61
1521090446.17,4958,9.19,72392.5,-8.37,-9.15,-9.05,0,*6D
1521090447.44,4959,9.19,72392.3,-8.35,-9.15,-9.15,0,*6F
1521090448.69,4960,9.19,72388.0,-8.37,-9.15,-9.15,0,*67
1521090449.97,4961,9.19,72386.3,-8.35,-9.15,-9.15,0,*64
1521090451.16,4962,9.19,72390.8,-8.37,-9.19,-9.19,0,*65
1521090452.43,4963,9.13,72390.0,-8.35,-9.15,-9.15,0,*66
1521090453.71,4964,9.19,72390.5,-8.35,-9.15,-9.15,0,*61
1521090454.95,4965,9.19,72392.0,-8.37,-9.15,-9.15,0,*62
1521090456.18,4966,9.19,72388.0,-8.37,-9.15,-9.05,0,*60
1521090457.4,4967,9.19,72388.8,-8.37,-9.05,-9.15,0,*61
1521090458.65,4968,9.19,72390.3,-8.35,-9.05,-9.15,0,*6C
1521090459.87,4969,9.19,72390.0,-8.37,-9.15,-9.01,0,*6B
1521090461.12,4970,9.19,72388.5,-8.37,-9.15,-9.15,0,*66
1521090462.37,4971,9.19,72386.0,-8.35,-9.15,-9.19,0,*69
1521090463.59,4972,9.19,72386.3,-8.37,-9.19,-9.15,0,*68
1521090464.81,4973,9.19,72390.3,-8.35,-9.19,-9.19,0,*67
1521090466.05,4974,9.19,72388.8,-8.35,-9.05,-9.15,0,*61
1521090467.3,4975,9.19,72388.3,-8.35,-9.15,-9.19,0,*6D
1521090468.55,4976,9.19,72388.0,-8.35,-9.05,-9.15,0,*63
1521090469.77,4977,9.19,72388.8,-8.37,-9.05,-9.15,0,*60
1521090471.01,4978,9.19,72386.3,-8.37,-9.15,-9.15,0,*6E
1521090472.24,4979,9.19,72390.5,-8.37,-9.15,-9.05,0,*6E
1521090473.49,4980,9.19,72392.8,-8.35,-9.15,-9.05,0,*6A
1521090474.69,4981,9.19,72390.0,-8.37,-9.05,-9.05,0,*68
1521090475.91,4982,9.13,72386.8,-8.37,-9.15,-9.05,0,*6A
1521090477.14,4983,9.19,72390.8,-8.37,-9.15,-9.05,0,*6B
1521090478.39,4984,9.19,72388.0,-8.35,-9.15,-9.05,0,*6E
1521090479.64,4985,9.19,72388.3,-8.37,-9.15,-9.15,0,*6C
1521090480.86,4986,9.19,72388.8,-8.37,-9.15,-9.05,0,*6E
1521090482.14,4987,9.19,72388.3,-8.35,-9.15,-9.15,0,*6C
1521090483.36,4988,9.19,72386.8,-8.37,-9.15,-9.05,0,*60
1521090484.61,4989,9.19,72390.5,-8.37,-9.15,-9.15,0,*60
1521090485.89,4990,9.19,72390.3,-8.35,-9.15,-9.15,0,*6A
1521090487.14,4991,9.19,72392.3,-8.37,-9.15,-9.15,0,*69
1521090488.36,4992,9.19,72394.3,-8.37,-9.05,-9.15,0,*6B
1521090489.6,4993,9.19,72390.3,-8.37,-9.15,-9.15,0,*6B
1521090490.82,4994,9.19,72388.3,-8.37,-9.05,-9.15,0,*6D
1521090492.07,4995,9.19,72388.8,-8.35,-9.05,-9.15,0,*6E
1521090493.32,4996,9.19,72394.0,-8.35,-9.15,-9.05,0,*6D
1521090494.55,4997,9.19,72390.3,-8.37,-9.15,-9.05,0,*6E
1521090495.8,4998,9.19,72390.8,-8.35,-9.15,-9.05,0,*63
1521090497.05,4999,9.19,72390.0,-8.35,-9.15,-9.05,0,*62
1521090498.3,5000,9.19,72390.5,-8.35,-9.15,-9.05,0,*6A
1521090499.53,5001,9.19,72390.8,-8.37,-9.15,-9.05,0,*69
1521090500.75,5002,9.19,72390.3,-8.35,-9.05,-9.05,0,*69
1521090502.0,5003,9.19,72390.0,-8.35,-9.15,-9.05,0,*69
1521090503.22,5004,9.19,72390.0,-8.37,-9.15,-9.05,0,*6C
1521090504.42,5005,9.19,72394.3,-8.37,-9.05,-9.05,0,*6C
1521090505.67,5006,9.19,72386.3,-8.35,-9.15,-9.05,0,*6C
1521090506.89,5007,9.19,72390.8,-8.35,-9.19,-9.05,0,*61
1521090508.09,5008,9.19,72390.5,-8.37,-9.05,-9.05,0,*61
1521090509.28,5009,9.19,72390.3,-8.37,-9.19,-9.05,0,*6D
1521090510.56,5010,9.19,72388.8,-8.35,-9.15,-9.15,0,*6A
1521090511.83,5011,9.13,72390.0,-8.35,-9.15,-9.15,0,*6B
1521090513.06,5012,9.13,72390.0,-8.37,-9.15,-9.05,0,*6B
1521090514.33,5013,9.19,72392.3,-8.35,-9.15,-9.15,0,*69
1521090515.56,5014,9.19,72390.0,-8.35,-9.05,-9.05,0,*6E
1521090516.83,5015,9.19,72390.3,-8.35,-9.15,-9.15,0,*6F
1521090518.08,5016,9.19,72388.8,-8.35,-9.05,-9.15,0,*6D
1521090519.32,5017,9.19,72388.0,-8.35,-9.05,-9.15,0,*6C
1521090520.59,5018,9.19,72390.0,-8.35,-9.15,-9.15,0,*62
1521090521.82,5019,9.19,72390.8,-8.35,-9.19,-9.05,0,*6E
1521090523.01,5020,9.19,72386.8,-8.37,-9.19,-9.05,0,*66
1521090524.23,5021,9.13,72386.0,-8.37,-9.19,-9.15,0,*66
1521090525.5,5022,9.19,72388.3,-8.35,-9.15,-9.15,0,*6B
1521090526.78,5023,9.19,72390.8,-8.35,-9.15,-9.15,0,*6A
1521090528.0,5024,9.19,72388.5,-8.35,-9.19,-9.01,0,*64
1521090529.23,5025,9.19,72388.3,-8.37,-9.15,-9.01,0,*6B
1521090530.45,5026,9.19,72390.8,-8.37,-9.05,-9.15,0,*6C